SL-16 DEB, 22613

Orbit data source: Space-Track

SL-16 DEB, 22613 is space debris in LEO originally from a launch on Fri, 26 Mar 1993 UTC launched from the Tyuratam Missile And Space Complex (TTMTR). Debris objects in space refer to the collection of defunct objects orbiting the Earth. Examples of debris include non-operational satellites, rocket bodies, and fragments generated from explosions, collisions, or faulty payload assembly.

Loading next visibility...
Identifier
22613, 1993-016X
Orbit
LEO
Country
Flag of CISCIS
Related business
Manufacturer
Unknown
Mission
Spacecraft
Bus & Motor
Unknown
Mass
Unknown
Launch date (UTC)
1993-03-26 (33 years ago)
Launch vehicle
Unknown
Launch site
Tyuratam Missile And Space Complex (TTMTR)
Object type
Payload
Rocket body
Debris
Shape & HBR
Unknown shape, 0.1 m
Radar Cross Section
Small (<0.1 m²)

Expand to show TLE details & history
Last TLE update: 9 hours ago

TLE from 9 hours ago
0 SL-16 DEB
1 22613U 93016X   26037.73974867  .00000487  00000-0  46465-3 0  9999
2 22613  71.0003 160.1308 0192984 350.9598 126.4292 13.77480497647001
Epoch: 2026-02-06T17:45Z
TLE epoch observation values (Epoch: 2026-02-06T17:45:14.285Z)
Latitude
55.78°
Longitude
-93.29564°
Altitude
1,067.566 km
Speed
7.281 km/s
True Right ascension
20h 39m 32s
True Declination
55° 37' 36"
Sunlit
Object was in daylight at epoch
Visualization orbit readout
Latitude
Unknown
Longitude
Unknown
Altitude
Unknown
Speed
Unknown
Apparent Right ascension
Unknown
Apparent Declination
Unknown
Sunlit
N/A
Visualization observer readout
Local Sidereal Time
04:32:02
Azimuth
Unknown
Elevation
Unknown
Doppler factor
Unknown
Orbital elements
Apogee altitude
1,112.62 km
Perigee altitude
828.975 km
Semi-major axis
7,348.934 km
Eccentricity
0.0193
Inclination
71.0003°
RAAN
160.1308°
Arg. of periapsis
350.9598°
True anomaly
128.18308°
Mean anomaly
126.4292°
Eccentric anomaly
127.30867°
Mean motion
3.44514 °/min
Orbital period
104.5 mins
BSTAR
0.00046465
Loading maneuver chart data...
Computing Atmospheric mass density...
Loading historical data...
Loading historical data...
Loading historical data...
Loading historical data...
Loading historical data...
Loading historical data...
Loading historical data...

Documentation

Showing up to 5 results
|